Glasgow, MT

1:22 AM MDT on March 26, 2017 (GMT -0600)
Wokal-Glasgow International

Weather History for KGGW - July, 2013

Change the Weather History Date:

Thursday, July 25, 2013

  Actual Average Record
Temperature  
Mean Temperature 63 °F 73 °F  
Max Temperature 74 °F 87 °F 108 °F (1929)
Min Temperature 51 °F 58 °F 42 °F (1918)
Degree Days  
Heating Degree Days 2 0  
Month to date heating degree days 5 15  
Since 1 June heating degree days 89 120  
Since 1 July heating degree days 5 15  
Cooling Degree Days 0 8  
Month to date cooling degree days 161 159  
Year to date cooling degree days 219 251  
Since 1 June cooling degree days 210 234  
Growing Degree Days 14 (Base 50)    
Moisture  
Dew Point 49 °F    
Average Humidity 66    
Maximum Humidity 100    
Minimum Humidity 31    
Precipitation  
Precipitation 0.00 in 0.05 in 1.50 in (1901)
Month to date precipitation 0.84 1.50  
Year to date precipitation 12.30 7.65  
Snow  
Snow 0.00 in 0.00 in T in (1953)
Month to date snowfall 0.0 0.0  
Since 1 June snowfall 0.0 0.0  
Since 1 July snowfall 0.0 0.0  
Snow Depth 0.00 in    
Sea Level Pressure  
Sea Level Pressure 30.18 in    
Wind  
Wind Speed 9 mph (NNE)    
Max Wind Speed 18 mph    
Max Gust Speed 24 mph    
Visibility 10 miles    
Events      
T = Trace of Precipitation, MM = Missing Value Source: NWS Daily Summary

Daily Weather History Graph

Daily Weather History Graph

Search for Another Location

Airport or City:

Trip Planner

Search our weather history database for the weather conditions in past years. The results will help you decide how hot, cold, wet, or windy it might be!

Date:

Astronomy

Jul. 25, 2013 Rise Set
Actual Time 5:33 AM MDT 8:51 PM MDT
Civil Twilight 4:55 AM MDT 9:29 PM MDT
Nautical Twilight 4:05 AM MDT 10:18 PM MDT
Astronomical Twilight 3:01 AM MDT 11:22 PM MDT
Moon 10:09 PM MDT (7/25) 9:27 AM MDT (7/25)
Length of Visible Light 16h 33m
Length of Day
15h 18m
Waning Gibbous, 88% of the Moon is Illuminated
Jul 25
Waning Gibbous
Jul 29
Last Quarter
Aug 6
New
Aug 14
First Quarter
Aug 20
Full

Hourly Weather History & Observations

Time (MDT) Temp. Dew Point Humidity Pressure Visibility Wind Dir Wind Speed Gust Speed Precip Events Conditions
12:53 AM 63.0 °F 57.0 °F 81% 30.05 in 10.0 mi NNE 5.8 mph - N/A   Overcast
1:53 AM 62.1 °F 57.0 °F 84% 30.05 in 10.0 mi North 8.1 mph - N/A   Mostly Cloudy
2:53 AM 59.0 °F 55.9 °F 90% 30.06 in 10.0 mi North 6.9 mph - N/A   Scattered Clouds
3:53 AM 57.9 °F 54.0 °F 87% 30.09 in 10.0 mi NNW 6.9 mph - N/A   Clear
4:53 AM 54.0 °F 53.1 °F 97% 30.11 in 10.0 mi NW 6.9 mph - N/A   Clear
5:53 AM 57.0 °F 54.0 °F 89% 30.13 in 10.0 mi NNE 9.2 mph - N/A   Clear
6:53 AM 59.0 °F 53.1 °F 81% 30.15 in 10.0 mi North 4.6 mph - N/A   Clear
7:53 AM 61.0 °F 55.0 °F 81% 30.17 in 10.0 mi NE 9.2 mph - N/A   Scattered Clouds
8:14 AM 62.6 °F 55.4 °F 77% 30.19 in 10.0 mi North 10.4 mph - N/A   Mostly Cloudy
8:53 AM 64.9 °F 54.0 °F 68% 30.19 in 10.0 mi North 9.2 mph - N/A   Mostly Cloudy
9:25 AM 62.6 °F 53.6 °F 72% 30.21 in 10.0 mi North 9.2 mph - N/A   Scattered Clouds
9:35 AM 66.2 °F 53.6 °F 64% 30.21 in 10.0 mi North 10.4 mph - N/A   Mostly Cloudy
9:53 AM 66.0 °F 53.1 °F 63% 30.20 in 10.0 mi North 9.2 mph - N/A   Mostly Cloudy
10:09 AM 66.2 °F 51.8 °F 60% 30.21 in 10.0 mi North 8.1 mph - N/A   Mostly Cloudy
10:53 AM 66.9 °F 50.0 °F 54% 30.20 in 10.0 mi North 12.7 mph 19.6 mph N/A   Scattered Clouds
11:53 AM 69.1 °F 48.9 °F 49% 30.21 in 10.0 mi North 10.4 mph 18.4 mph N/A   Scattered Clouds
12:53 PM 71.1 °F 46.9 °F 42% 30.20 in 10.0 mi NNE 10.4 mph 17.3 mph N/A   Clear
1:53 PM 70.0 °F 46.0 °F 42% 30.20 in 10.0 mi NE 13.8 mph 20.7 mph N/A   Clear
2:53 PM 72.0 °F 45.0 °F 38% 30.20 in 10.0 mi NNE 12.7 mph 19.6 mph N/A   Clear
3:53 PM 72.0 °F 42.1 °F 34% 30.20 in 10.0 mi NNE 11.5 mph 21.9 mph N/A   Clear
4:53 PM 72.0 °F 39.9 °F 31% 30.20 in 10.0 mi North 4.6 mph 16.1 mph N/A   Clear
5:53 PM 72.0 °F 41.0 °F 33% 30.19 in 10.0 mi North 11.5 mph - N/A   Clear
6:53 PM 70.0 °F 42.1 °F 36% 30.19 in 10.0 mi NE 12.7 mph - N/A   Clear
7:53 PM 66.9 °F 43.0 °F 42% 30.22 in 10.0 mi NE 10.4 mph - N/A   Clear
8:53 PM 62.1 °F 43.0 °F 50% 30.23 in 10.0 mi ENE 8.1 mph - N/A   Clear
9:53 PM 57.9 °F 44.1 °F 60% 30.25 in 10.0 mi ENE 9.2 mph - N/A   Clear
10:53 PM 57.0 °F 44.1 °F 62% 30.27 in 10.0 mi ENE 10.4 mph - N/A   Clear
11:53 PM 54.0 °F 45.0 °F 72% 30.27 in 10.0 mi ENE 10.4 mph - N/A   Clear